FW1193 Weather Reports


Display with metric or nautical units.
time (UTC)temp
F
wind
direction
speed
MPH
gust
MPH
rain 1hr
in
rain 24hr
in
rain mn
in
humidity
%
barometer
mb
20260505004121 71 57 0.0 2.0 0.00 0.00 0.00 63 1011.1
20260505003609 71 57 0.0 3.0 0.00 0.00 0.00 61 1011.2
20260505003105 71 57 0.0 3.0 0.00 0.00 0.00 62 1011.2
20260505002553 72 39 0.0 1.0 0.00 0.00 0.00 61 1011.4
20260505002047 72 39 0.0 1.0 0.00 0.00 0.00 60 1011.5
20260505001544 73 39 0.0 2.0 0.00 0.00 0.00 60 1011.5
20260505001027 73 39 1.0 2.0 0.00 0.00 0.00 61 1011.5
20260505000523 73 39 0.0 2.0 0.00 0.00 0.00 59 1011.6
20260505000255 74 39 0.0 2.0 0.00 0.00 0.00 57 1011.7
20260504235756 74 39 0.0 2.0 0.00 0.00 0.00 57 1011.9
20260504235021 75 39 0.0 2.0 0.00 0.00 0.00 56 1011.8
20260504234521 75 39 0.0 2.0 0.00 0.00 0.00 55 1011.9
20260504234021 76 38 0.0 1.0 0.00 0.00 0.00 55 1011.9
20260504233519 76 38 0.0 2.0 0.00 0.00 0.00 53 1011.9
20260504233017 76 47 0.0 2.0 0.00 0.00 0.00 55 1011.8
20260504232518 77 44 1.0 2.0 0.00 0.00 0.00 51 1011.8
20260504232018 77 44 1.0 2.0 0.00 0.00 0.00 54 1011.9
20260504231516 78 46 0.0 2.0 0.00 0.00 0.00 50 1012.0
20260504231015 78 46 0.0 3.0 0.00 0.00 0.00 50 1012.0
20260504230506 79 110 0.0 3.0 0.00 0.00 0.00 49 1012.0
20260504230005 79 0 0.0 3.0 0.00 0.00 0.00 49 1012.0
20260504225503 80 0 0.0 3.0 0.00 0.00 0.00 50 1011.9
20260504224955 80 0 0.0 2.0 0.00 0.00 0.00 50 1012.0
20260504224441 80 355 0.0 3.0 0.00 0.00 0.00 49 1012.1
20260504224212 80 355 1.0 5.0 0.00 0.00 0.00 49 1012.2
20260504223440 80 355 1.0 5.0 0.00 0.00 0.00 49 1012.2
20260504222940 80 76 1.0 4.0 0.00 0.00 0.00 47 1012.2
20260504222441 80 98 1.0 3.0 0.00 0.00 0.00 49 1012.2
20260504222209 80 98 1.0 5.0 0.00 0.00 0.00 48 1012.2
20260504221439 80 327 1.0 5.0 0.00 0.00 0.00 49 1012.4
20260504220933 80 76 1.0 3.0 0.00 0.00 0.00 51 1012.4
20260504220431 80 301 1.0 3.0 0.00 0.00 0.00 47 1012.4
20260504215932 80 294 1.0 3.0 0.00 0.00 0.00 48 1012.4
20260504215431 80 336 1.0 4.0 0.00 0.00 0.00 47 1012.6
20260504214928 80 117 1.0 6.0 0.00 0.00 0.00 47 1012.6
20260504214428 80 346 1.0 6.0 0.00 0.00 0.00 49 1012.6
20260504213927 81 101 1.0 4.0 0.00 0.00 0.00 50 1012.6
20260504213424 80 314 1.0 7.0 0.00 0.00 0.00 47 1012.6
20260504212923 81 105 1.0 7.0 0.00 0.00 0.00 47 1012.6
20260504212412 81 349 1.0 4.0 0.00 0.00 0.00 45 1012.6
20260504211904 81 22 1.0 4.0 0.00 0.00 0.00 47 1012.6
20260504211633 81 30 1.0 4.0 0.00 0.00 0.00 45 1012.7
20260504210904 81 296 1.0 4.0 0.00 0.00 0.00 48 1012.7
20260504210405 80 306 1.0 6.0 0.00 0.00 0.00 48 1012.8
20260504205904 80 105 2.0 6.0 0.00 0.00 0.00 49 1012.9
20260504205621 80 294 2.0 6.0 0.00 0.00 0.00 48 1013.1
20260504204845 80 296 2.0 6.0 0.00 0.00 0.00 46 1013.4
20260504204839 80 331 1.0 4.0 0.00 0.00 0.00 49 1013.2
20260504203839 80 317 2.0 6.0 0.00 0.00 0.00 49 1013.4
20260504203339 80 265 2.0 6.0 0.00 0.00 0.00 48 1013.4
20260504202841 80 328 1.0 5.0 0.00 0.00 0.00 46 1013.4
20260504202341 80 146 1.0 6.0 0.00 0.00 0.00 49 1013.6
20260504202108 80 243 1.0 6.0 0.00 0.00 0.00 49 1013.7
20260504201332 80 76 2.0 5.0 0.00 0.00 0.00 48 1013.9
20260504201104 79 306 2.0 6.0 0.00 0.00 0.00 47 1013.9
20260504200604 79 36 1.0 6.0 0.00 0.00 0.00 48 1013.8
20260504195832 80 111 1.0 4.0 0.00 0.00 0.00 48 1013.9
20260504195332 79 81 1.0 3.0 0.00 0.00 0.00 49 1013.9
20260504194830 79 245 1.0 4.0 0.00 0.00 0.00 47 1014.1
20260504194331 80 110 1.0 4.0 0.00 0.00 0.00 45 1014.1
20260504193830 80 52 1.0 6.0 0.00 0.00 0.00 45 1014.3
20260504193328 80 355 1.0 6.0 0.00 0.00 0.00 46 1014.4
20260504192826 80 295 1.0 5.0 0.00 0.00 0.00 46 1014.5
20260504192327 80 267 1.0 5.0 0.00 0.00 0.00 52 1014.5
20260504191821 79 270 1.0 6.0 0.00 0.00 0.00 49 1014.7
20260504191319 79 138 2.0 7.0 0.00 0.00 0.00 51 1014.7
20260504191315 79 319 1.0 6.0 0.00 0.00 0.00 48 1014.6
20260504190308 78 109 3.0 7.0 0.00 0.00 0.00 48 1014.7
20260504185811 78 277 3.0 7.0 0.00 0.00 0.00 45 1014.8
20260504185246 79 296 1.0 5.0 0.00 0.00 0.00 52 1014.7
20260504184747 79 298 1.0 4.0 0.00 0.00 0.00 51 1014.8
20260504184241 79 49 1.0 5.0 0.00 0.00 0.00 51 1014.9
20260504183737 79 314 1.0 5.0 0.00 0.00 0.00 49 1014.8
20260504183236 79 288 1.0 5.0 0.00 0.00 0.00 50 1015.0
20260504183009 78 186 1.0 6.0 0.00 0.00 0.00 46 1015.2
20260504182237 78 267 1.0 6.0 0.00 0.00 0.00 54 1015.1
20260504181731 78 339 1.0 6.0 0.00 0.00 0.00 47 1015.2
20260504181228 78 21 2.0 6.0 0.00 0.00 0.00 50 1015.4
20260504180729 78 349 2.0 5.0 0.00 0.00 0.00 53 1015.5
20260504180229 78 279 1.0 5.0 0.00 0.00 0.00 45 1015.6
20260504175727 78 58 1.0 6.0 0.00 0.00 0.00 48 1015.6
20260504175226 78 245 1.0 6.0 0.00 0.00 0.00 46 1015.6
20260504174727 78 265 1.0 6.0 0.00 0.00 0.00 51 1015.7
20260504174225 78 63 2.0 7.0 0.00 0.00 0.00 51 1015.7
20260504173724 77 49 2.0 7.0 0.00 0.00 0.00 49 1015.8
20260504173224 77 302 1.0 6.0 0.00 0.00 0.00 49 1015.9
20260504172946 77 68 1.0 4.0 0.00 0.00 0.00 47 1015.9
20260504172821 78 72 1.0 4.0 0.00 0.00 0.00 50 1015.8
20260504171707 77 67 2.0 5.0 0.00 0.00 0.00 45 1015.8
20260504171207 77 78 1.0 5.0 0.00 0.00 0.00 48 1016.1
20260504170706 77 72 1.0 4.0 0.00 0.00 0.00 46 1016.1
20260504170202 77 22 1.0 4.0 0.00 0.00 0.00 49 1016.1
20260504160129 76 46 1.0 3.0 0.00 0.00 0.00 49 1016.5
20260504150549 74 128 1.0 2.0 0.00 0.00 0.00 61 1016.6
20260504140434 69 311 1.0 3.0 0.00 0.00 0.00 75 1016.5
20260504130342 60 319 0.0 0.0 0.00 0.00 0.00 95 1016.6
20260504120247 53 319 0.0 0.0 0.00 0.00 0.00 94 1016.3
20260504110634 52 319 0.0 0.0 0.00 0.00 0.00 94 1015.9
20260504110113 52 319 0.0 0.0 0.00 0.00 0.00 94 1015.9
20260504100421 53 319 0.0 0.0 0.00 0.00 0.00 94 1015.9
20260504090140 54 319 0.0 0.0 0.00 0.00 0.00 93 1016.2
20260504081914 54 319 0.0 0.0 0.00 0.00 0.00 92 1016.3
20260504081341 54 319 0.0 0.0 0.00 0.00 0.00 92 1016.3
20260504080841 54 319 0.0 0.0 0.00 0.00 0.00 92 1016.4
20260504080550 54 319 0.0 0.0 0.00 0.00 0.00 92 1016.4
20260504070127 55 319 0.0 0.0 0.00 0.00 0.00 91 1016.6
20260504050202 57 319 0.0 0.0 0.00 0.00 0.00 88 1017.3
20260504045645 57 319 0.0 0.0 0.00 0.00 0.00 88 1017.3
20260504045405 57 319 0.0 0.0 0.00 0.00 0.00 88 1017.4
20260504044634 57 319 0.0 0.0 0.00 0.00 0.00 88 1017.4
20260504044406 57 319 0.0 0.0 0.00 0.00 0.00 88 1017.5
20260504043626 57 319 0.0 0.0 0.00 0.00 0.00 87 1017.5
20260504043121 58 319 0.0 0.0 0.00 0.00 0.00 87 1017.6
20260504042623 58 319 0.0 0.0 0.00 0.00 0.00 87 1017.6
20260504042123 58 319 0.0 0.0 0.00 0.00 0.00 87 1017.5
20260504041607 58 319 0.0 0.0 0.00 0.00 0.00 87 1017.6
20260504041104 58 319 0.0 0.0 0.00 0.00 0.00 86 1017.5
20260504040559 58 319 0.0 0.0 0.00 0.00 0.00 86 1017.6
20260504040054 58 319 0.0 0.0 0.00 0.00 0.00 85 1017.5
20260504035822 58 319 0.0 0.0 0.00 0.00 0.00 84 1017.6
20260504035029 59 319 0.0 0.0 0.00 0.00 0.00 84 1017.6
20260504034524 59 319 0.0 0.0 0.00 0.00 0.00 83 1017.6
20260504034010 59 319 0.0 0.0 0.00 0.00 0.00 83 1017.6
20260504033501 59 319 0.0 0.0 0.00 0.00 0.00 83 1017.6
20260504032955 59 319 0.0 0.0 0.00 0.00 0.00 83 1017.6
20260504032456 59 319 0.0 0.0 0.00 0.00 0.00 82 1017.6
20260504031956 59 319 0.0 0.0 0.00 0.00 0.00 82 1017.6
20260504031438 59 319 0.0 0.0 0.00 0.00 0.00 79 1017.6
20260504030919 60 319 0.0 0.0 0.00 0.00 0.00 79 1017.5
20260504030413 60 319 0.0 0.0 0.00 0.00 0.00 77 1017.6
20260504025857 60 319 0.0 0.0 0.00 0.00 0.00 75 1017.6
20260504025624 60 319 0.0 0.0 0.00 0.00 0.00 77 1017.5
20260504024843 60 319 0.0 0.0 0.00 0.00 0.00 76 1017.5
20260504024345 61 319 0.0 0.0 0.00 0.00 0.00 75 1017.5
20260504023842 61 319 0.0 0.0 0.00 0.00 0.00 73 1017.5
20260504023339 61 319 0.0 0.0 0.00 0.00 0.00 72 1017.4
20260504022839 61 319 0.0 0.0 0.00 0.00 0.00 72 1017.4
20260504022338 62 319 0.0 0.0 0.00 0.00 0.00 72 1017.3
20260504021840 62 319 0.0 0.0 0.00 0.00 0.00 72 1017.3
20260504021336 62 319 0.0 0.0 0.00 0.00 0.00 71 1017.3
20260504020835 63 319 0.0 0.0 0.00 0.00 0.00 70 1017.1
20260504020332 63 319 0.0 0.0 0.00 0.00 0.00 70 1017.1
20260504015830 63 319 0.0 0.0 0.00 0.00 0.00 68 1017.0
20260504015330 63 319 0.0 0.0 0.00 0.00 0.00 67 1016.9
20260504015053 64 319 0.0 0.0 0.00 0.00 0.00 67 1016.9
20260504014313 64 319 0.0 0.0 0.00 0.00 0.00 65 1016.8
20260504013752 64 319 0.0 0.0 0.00 0.00 0.00 64 1016.8
20260504013245 65 319 0.0 0.0 0.00 0.00 0.00 63 1016.7
20260504013002 65 319 0.0 0.0 0.00 0.00 0.00 61 1016.7
20260504012232 65 319 0.0 0.0 0.00 0.00 0.00 60 1016.6
20260504011734 66 319 0.0 0.0 0.00 0.00 0.00 59 1016.6
20260504011233 66 319 0.0 0.0 0.00 0.00 0.00 58 1016.5
20260504010721 67 319 0.0 0.0 0.00 0.00 0.00 58 1016.5
20260504010222 68 319 0.0 0.0 0.00 0.00 0.00 57 1016.5
20260504005721 68 319 0.0 0.0 0.00 0.00 0.00 56 1016.5
20260504005213 69 319 0.0 0.0 0.00 0.00 0.00 55 1016.5
20260504004652 69 319 0.0 0.0 0.00 0.00 0.00 56 1016.4
20260504004149 69 319 0.0 0.0 0.00 0.00 0.00 54 1016.4